Location: 22
(39.7117°N, 89.5929°W)
Time: 07:58:34
(UTC-05:00)

ARIANE 6 FM1 Upper Stage - Pass Details

Date: 11 April 2026
Orbit: 526 x 601 km, 62.0° (Epoch: 18 May)

Event Time Altitude Azimuth Distance (km) Brightness Sun altitude
Rises 05:40:12 0° 310° (NW) 2,662 5.8 -9.5°
Reaches altitude 10° 05:42:44 10° 295° (WNW) 1,771 4.8 -9.0°
Maximum altitude 05:45:49 22° 244° (WSW) 1,194 3.7 -8.4°
Drops below altitude 10° 05:48:54 10° 193° (SSW) 1,775 4.9 -7.9°
Sets 05:51:27 0° 177° (S) 2,671 6.0 -7.4°
